| time (UTC) | temp F | wind direction | speed MPH | gust MPH | rain 1hr in | rain 24hr in | rain mn in | humidity % | barometer mb |
| 20260505192350 | 64 | 0.0 | 0.0 | 0.00 | 0.00 | 0.00 | 71 | 1011.3 | |
| 20260505191350 | 65 | 0.0 | 0.0 | 0.00 | 0.00 | 0.00 | 62 | 1011.0 | |
| 20260505190350 | 66 | 0.0 | 0.0 | 0.00 | 0.00 | 0.00 | 55 | 1010.9 | |
| 20260505185350 | 67 | 0.0 | 0.0 | 0.00 | 0.00 | 0.00 | 51 | 1010.6 | |
| 20260505184350 | 68 | 0.0 | 0.0 | 0.00 | 0.00 | 0.00 | 50 | 1010.5 | |
| 20260505183350 | 69 | 0.0 | 0.0 | 0.00 | 0.00 | 0.00 | 50 | 1010.5 | |
| 20260505182350 | 69 | 0.0 | 0.0 | 0.00 | 0.00 | 0.00 | 49 | 1010.5 | |
| 20260505181350 | 70 | 0.0 | 0.0 | 0.00 | 0.00 | 0.00 | 44 | 1010.5 | |
| 20260505180350 | 70 | 0.0 | 0.0 | 0.00 | 0.00 | 0.00 | 42 | 1010.4 | |
| 20260505175350 | 71 | 0.0 | 0.0 | 0.00 | 0.00 | 0.00 | 40 | 1010.3 | |
| 20260505174350 | 72 | 0.0 | 0.0 | 0.00 | 0.00 | 0.00 | 41 | 1010.2 | |
| 20260505173350 | 72 | 0.0 | 0.0 | 0.00 | 0.00 | 0.00 | 42 | 1010.3 | |
| 20260505172350 | 72 | 0.0 | 0.0 | 0.00 | 0.00 | 0.00 | 41 | 1010.2 | |
| 20260505171350 | 73 | 0.0 | 0.0 | 0.00 | 0.00 | 0.00 | 41 | 1010.1 | |
| 20260505170350 | 74 | 0.0 | 0.0 | 0.00 | 0.00 | 0.00 | 37 | 1010.0 | |
| 20260505165350 | 75 | 0.0 | 0.0 | 0.00 | 0.00 | 0.00 | 38 | 1009.9 | |
| 20260505164350 | 75 | 0.0 | 0.0 | 0.00 | 0.00 | 0.00 | 38 | 1010.0 | |
| 20260505163350 | 74 | 0.0 | 0.0 | 0.00 | 0.00 | 0.00 | 38 | 1010.1 | |
| 20260505162350 | 75 | 0.0 | 0.0 | 0.00 | 0.00 | 0.00 | 37 | 1010.2 | |
| 20260505161350 | 76 | 0.0 | 0.0 | 0.00 | 0.00 | 0.00 | 35 | 1010.0 | |
| 20260505160350 | 76 | 0.0 | 0.0 | 0.00 | 0.00 | 0.00 | 34 | 1010.0 | |
| 20260505153350 | 74 | 0.0 | 0.0 | 0.00 | 0.00 | 0.00 | 37 | 1010.2 | |
| 20260505152350 | 74 | 0.0 | 0.0 | 0.00 | 0.00 | 0.00 | 38 | 1010.2 | |
| 20260505151350 | 75 | 0.0 | 0.0 | 0.00 | 0.00 | 0.00 | 36 | 1010.2 | |
| 20260505150350 | 78 | 0.0 | 0.0 | 0.00 | 0.00 | 0.00 | 37 | 1009.9 | |
| 20260505140350 | 76 | 0.0 | 0.0 | 0.00 | 0.00 | 0.00 | 38 | 1010.4 | |
| 20260505124350 | 77 | 0.0 | 0.0 | 0.00 | 0.00 | 0.00 | 39 | 1011.1 | |
| 20260505123350 | 77 | 0.0 | 0.0 | 0.00 | 0.00 | 0.00 | 39 | 1011.1 | |
| 20260505122350 | 76 | 0.0 | 0.0 | 0.00 | 0.00 | 0.00 | 40 | 1011.3 | |
| 20260505121350 | 75 | 0.0 | 0.0 | 0.00 | 0.00 | 0.00 | 39 | 1011.5 | |
| 20260505120350 | 75 | 0.0 | 0.0 | 0.00 | 0.00 | 0.00 | 43 | 1011.7 | |
| 20260505115350 | 75 | 0.0 | 0.0 | 0.00 | 0.00 | 0.00 | 41 | 1011.8 | |
| 20260505114350 | 76 | 0.0 | 0.0 | 0.00 | 0.00 | 0.00 | 44 | 1011.8 | |
| 20260505113350 | 73 | 0.0 | 0.0 | 0.00 | 0.00 | 0.00 | 45 | 1012.2 | |
| 20260505112350 | 69 | 0.0 | 0.0 | 0.00 | 0.00 | 0.00 | 48 | 1012.5 | |
| 20260505111350 | 71 | 0.0 | 0.0 | 0.00 | 0.00 | 0.00 | 46 | 1012.4 | |
| 20260505110350 | 73 | 0.0 | 0.0 | 0.00 | 0.00 | 0.00 | 46 | 1012.2 | |
| 20260505101350 | 72 | 0.0 | 0.0 | 0.00 | 0.00 | 0.00 | 48 | 1012.6 | |
| 20260505100350 | 71 | 0.0 | 0.0 | 0.00 | 0.00 | 0.00 | 49 | 1012.6 | |
| 20260505095350 | 68 | 0.0 | 0.0 | 0.00 | 0.00 | 0.00 | 52 | 1012.9 | |
| 20260505094350 | 70 | 0.0 | 0.0 | 0.00 | 0.00 | 0.00 | 53 | 1012.7 | |
| 20260505093350 | 69 | 0.0 | 0.0 | 0.00 | 0.00 | 0.00 | 54 | 1012.9 | |
| 20260505092350 | 69 | 0.0 | 0.0 | 0.00 | 0.00 | 0.00 | 55 | 1012.8 | |
| 20260505091350 | 69 | 0.0 | 0.0 | 0.00 | 0.00 | 0.00 | 58 | 1012.8 | |
| 20260505090350 | 69 | 0.0 | 0.0 | 0.00 | 0.00 | 0.00 | 57 | 1012.8 | |
| 20260505085350 | 69 | 0.0 | 0.0 | 0.00 | 0.00 | 0.00 | 58 | 1012.9 | |
| 20260505084350 | 69 | 0.0 | 0.0 | 0.00 | 0.00 | 0.00 | 59 | 1012.9 | |
| 20260505083350 | 69 | 0.0 | 0.0 | 0.00 | 0.00 | 0.00 | 61 | 1012.9 | |
| 20260505082350 | 67 | 0.0 | 0.0 | 0.00 | 0.00 | 0.00 | 65 | 1013.2 | |
| 20260505081350 | 66 | 0.0 | 0.0 | 0.00 | 0.00 | 0.00 | 67 | 1013.1 | |
| 20260505080350 | 65 | 0.0 | 0.0 | 0.00 | 0.00 | 0.00 | 72 | 1013.3 | |
| 20260505075350 | 63 | 0.0 | 0.0 | 0.00 | 0.00 | 0.00 | 74 | 1013.6 | |
| 20260505074350 | 62 | 0.0 | 0.0 | 0.00 | 0.00 | 0.00 | 89 | 1013.6 | |
| 20260505073350 | 61 | 0.0 | 0.0 | 0.00 | 0.00 | 0.00 | 10 | 1013.7 | |
| 20260505072350 | 59 | 0.0 | 0.0 | 0.00 | 0.00 | 0.00 | 10 | 1014.0 | |
| 20260505071350 | 59 | 0.0 | 0.0 | 0.00 | 0.00 | 0.00 | 10 | 1014.0 | |
| 20260505070350 | 58 | 0.0 | 0.0 | 0.00 | 0.00 | 0.00 | 10 | 1014.1 | |
| 20260505065350 | 57 | 0.0 | 0.0 | 0.00 | 0.00 | 0.00 | 10 | 1014.2 | |
| 20260505064350 | 57 | 0.0 | 0.0 | 0.00 | 0.00 | 0.00 | 10 | 1014.2 | |
| 20260505063350 | 56 | 0.0 | 0.0 | 0.00 | 0.00 | 0.00 | 10 | 1014.2 | |
| 20260505062350 | 56 | 0.0 | 0.0 | 0.00 | 0.00 | 0.00 | 10 | 1014.2 | |
| 20260505061350 | 55 | 0.0 | 0.0 | 0.00 | 0.00 | 0.00 | 10 | 1014.1 | |
| 20260505060350 | 54 | 0.0 | 0.0 | 0.00 | 0.00 | 0.00 | 10 | 1014.2 | |
| 20260505055350 | 54 | 0.0 | 0.0 | 0.00 | 0.00 | 0.00 | 10 | 1014.2 | |
| 20260505054350 | 54 | 0.0 | 0.0 | 0.00 | 0.00 | 0.00 | 10 | 1014.2 | |
| 20260505053350 | 54 | 0.0 | 0.0 | 0.00 | 0.00 | 0.00 | 10 | 1014.1 | |
| 20260505052350 | 54 | 0.0 | 0.0 | 0.00 | 0.00 | 0.00 | 10 | 1014.0 | |
| 20260505051350 | 54 | 0.0 | 0.0 | 0.00 | 0.00 | 0.00 | 10 | 1014.0 | |
| 20260505050350 | 54 | 0.0 | 0.0 | 0.00 | 0.00 | 0.00 | 10 | 1014.0 | |
| 20260505041350 | 56 | 0.0 | 0.0 | 0.00 | 0.00 | 0.00 | 10 | 1013.8 | |
| 20260505040350 | 56 | 0.0 | 0.0 | 0.00 | 0.00 | 0.00 | 10 | 1014.0 | |
| 20260505035350 | 56 | 0.0 | 0.0 | 0.00 | 0.00 | 0.00 | 10 | 1014.0 | |
| 20260505034350 | 56 | 0.0 | 0.0 | 0.00 | 0.00 | 0.00 | 10 | 1014.0 | |
| 20260505033350 | 56 | 0.0 | 0.0 | 0.00 | 0.00 | 0.00 | 10 | 1013.9 | |
| 20260505032350 | 57 | 0.0 | 0.0 | 0.00 | 0.00 | 0.00 | 10 | 1013.8 | |
| 20260505031350 | 57 | 0.0 | 0.0 | 0.00 | 0.00 | 0.00 | 10 | 1013.8 | |
| 20260505030350 | 58 | 0.0 | 0.0 | 0.00 | 0.00 | 0.00 | 10 | 1013.7 | |
| 20260505025350 | 58 | 0.0 | 0.0 | 0.00 | 0.00 | 0.00 | 10 | 1013.7 | |
| 20260505024350 | 58 | 0.0 | 0.0 | 0.00 | 0.00 | 0.00 | 10 | 1013.6 | |
| 20260505023350 | 59 | 0.0 | 0.0 | 0.00 | 0.00 | 0.00 | 10 | 1013.7 | |
| 20260505022350 | 59 | 0.0 | 0.0 | 0.00 | 0.00 | 0.00 | 10 | 1013.6 | |
| 20260505021350 | 59 | 0.0 | 0.0 | 0.00 | 0.00 | 0.00 | 10 | 1013.7 | |
| 20260505020350 | 59 | 0.0 | 0.0 | 0.00 | 0.00 | 0.00 | 10 | 1013.6 | |
| 20260505015350 | 60 | 0.0 | 0.0 | 0.00 | 0.00 | 0.00 | 10 | 1013.6 | |
| 20260505014350 | 60 | 0.0 | 0.0 | 0.00 | 0.00 | 0.00 | 10 | 1013.6 | |
| 20260505013350 | 60 | 0.0 | 0.0 | 0.00 | 0.00 | 0.00 | 10 | 1013.6 | |
| 20260505012350 | 61 | 0.0 | 0.0 | 0.00 | 0.00 | 0.00 | 10 | 1013.5 | |
| 20260505011350 | 61 | 0.0 | 0.0 | 0.00 | 0.00 | 0.00 | 10 | 1013.5 | |
| 20260505010350 | 61 | 0.0 | 0.0 | 0.00 | 0.00 | 0.00 | 10 | 1013.8 | |
| 20260505005350 | 62 | 0.0 | 0.0 | 0.00 | 0.00 | 0.00 | 10 | 1013.8 | |
| 20260505004350 | 62 | 0.0 | 0.0 | 0.00 | 0.00 | 0.00 | 10 | 1014.0 | |
| 20260505003350 | 62 | 0.0 | 0.0 | 0.00 | 0.00 | 0.00 | 10 | 1013.9 | |
| 20260505002350 | 61 | 0.0 | 0.0 | 0.00 | 0.00 | 0.00 | 10 | 1014.0 | |
| 20260505001350 | 62 | 0.0 | 0.0 | 0.00 | 0.00 | 0.00 | 98 | 1013.7 | |
| 20260505000351 | 63 | 0.0 | 0.0 | 0.00 | 0.00 | 0.00 | 10 | 1013.8 | |
| 20260504235350 | 63 | 0.0 | 0.0 | 0.00 | 0.00 | 0.00 | 97 | 1013.9 | |
| 20260504234350 | 63 | 0.0 | 0.0 | 0.00 | 0.00 | 0.00 | 10 | 1013.9 | |
| 20260504233350 | 64 | 0.0 | 0.0 | 0.00 | 0.00 | 0.00 | 93 | 1013.8 | |
| 20260504232350 | 64 | 0.0 | 0.0 | 0.00 | 0.00 | 0.00 | 87 | 1013.9 | |
| 20260504231350 | 64 | 0.0 | 0.0 | 0.00 | 0.00 | 0.00 | 83 | 1013.9 | |
| 20260504230350 | 63 | 0.0 | 0.0 | 0.00 | 0.00 | 0.00 | 88 | 1013.9 | |
| 20260504225350 | 63 | 0.0 | 0.0 | 0.00 | 0.00 | 0.00 | 88 | 1013.8 | |
| 20260504224350 | 63 | 0.0 | 0.0 | 0.00 | 0.00 | 0.00 | 91 | 1013.9 | |
| 20260504223350 | 64 | 0.0 | 0.0 | 0.00 | 0.00 | 0.00 | 78 | 1013.8 | |
| 20260504222350 | 63 | 0.0 | 0.0 | 0.00 | 0.00 | 0.00 | 77 | 1013.8 | |
| 20260504221350 | 64 | 0.0 | 0.0 | 0.00 | 0.00 | 0.00 | 83 | 1013.8 | |
| 20260504220350 | 63 | 0.0 | 0.0 | 0.00 | 0.00 | 0.00 | 79 | 1013.8 | |
| 20260504215350 | 63 | 0.0 | 0.0 | 0.00 | 0.00 | 0.00 | 84 | 1013.9 | |
| 20260504214350 | 62 | 0.0 | 0.0 | 0.00 | 0.00 | 0.00 | 75 | 1013.9 | |
| 20260504213350 | 62 | 0.0 | 0.0 | 0.00 | 0.00 | 0.00 | 98 | 1014.0 | |
| 20260504212350 | 61 | 0.0 | 0.0 | 0.00 | 0.00 | 0.00 | 98 | 1013.9 | |
| 20260504211350 | 62 | 0.0 | 0.0 | 0.00 | 0.00 | 0.00 | 10 | 1013.8 | |
| 20260504210350 | 62 | 0.0 | 0.0 | 0.00 | 0.00 | 0.00 | 87 | 1013.7 | |
| 20260504205350 | 63 | 0.0 | 0.0 | 0.00 | 0.00 | 0.00 | 81 | 1013.6 | |
| 20260504204350 | 63 | 0.0 | 0.0 | 0.00 | 0.00 | 0.00 | 76 | 1013.4 | |
| 20260504203350 | 63 | 0.0 | 0.0 | 0.00 | 0.00 | 0.00 | 75 | 1013.3 | |
| 20260504202350 | 64 | 0.0 | 0.0 | 0.00 | 0.00 | 0.00 | 67 | 1013.1 | |
| 20260504201350 | 65 | 0.0 | 0.0 | 0.00 | 0.00 | 0.00 | 67 | 1012.9 | |
| 20260504200350 | 65 | 0.0 | 0.0 | 0.00 | 0.00 | 0.00 | 68 | 1012.7 | |
| 20260504195350 | 66 | 0.0 | 0.0 | 0.00 | 0.00 | 0.00 | 57 | 1012.5 | |
| 20260504194350 | 66 | 0.0 | 0.0 | 0.00 | 0.00 | 0.00 | 60 | 1012.4 | |
| 20260504193350 | 67 | 0.0 | 0.0 | 0.00 | 0.00 | 0.00 | 56 | 1012.2 |